Location: Broletto
(44.6000°N, 10.5833°E)
Time: 08:09:28
(UTC+00:00)

Cosmos 1092 Rocket - Pass Details

Date: 18 April 2021
Orbit: 954 x 995 km, 82.9° (Epoch: 06 May)

Event Time Altitude Azimuth Distance (km) Brightness Sun altitude
Rises 18:57:58 0° 353° (N) 3,697 7.5 -9.4°
Reaches altitude 10° 19:00:31 10° 356° (N) 2,739 6.8 -9.8°
Maximum altitude 19:06:47 70° 80° (E) 1,029 4.0 -10.8°
Drops below altitude 10° 19:12:56 10° 164° (SSE) 2,693 5.9 -11.7°
Enters shadow 19:14:53 - 166° (SSE) 3,423 6.5 -12.0°
